This demonstration page uses our WeatherBlox Daily Observations layout. Learn more.

Left ArrowRight Arrow

34.02893, -84.19858

Hourly Observations for March 18, 2022

Temp ( °F °C ) Dew Point ( °F °C ) Humidity (%) Winds ( mph kmh ) Pressure ( in mb ) Visibility ( mi km ) Precip ( " mm )
12:53 am 00:53 Clear 52 11.1 50 10 93 93 Calm 30.01 1016 10 16 0.00 0.00
1:53 am 01:53 Clear 50 10 49 9.4 96 96 Calm 29.99 1016 10 16 0.00 0.00
2:53 am 02:53 Clear 51 10.6 49 9.4 92 92 Calm 29.97 1015 10 16 0.00 0.00
3:53 am 03:53 Clear 50 10 48 8.9 93 93 Calm 29.96 1015 10 16 0.00 0.00
4:53 am 04:53 Clear 48 8.9 47 8.3 96 96 Calm 29.97 1015 10 16 0.00 0.00
5:53 am 05:53 Clear with Mist and Fog 48 8.9 47 8.3 96 96 Calm 29.96 1015 4 6 0.00 0.00
6:53 am 06:53 Clear 50 10 48 8.9 93 93 Calm 29.99 1016 10 16 0.00 0.00
7:53 am 07:53 Sunny 50 10 49 9.4 96 96 Calm 29.99 1016 10 16 0.00 0.00
8:53 am 08:53 Sunny 51 10.6 50 10 96 96 Calm 30.00 1016 7 11 0.00 0.00
9:53 am 09:53 Sunny 54 12.2 52 11.1 93 93 VRB 3 6 29.97 1015 9 14 0.00 0.00
10:53 am 10:53 Partly Cloudy 54 12.2 52 11.1 93 93 VRB 5 7 29.97 1015 8 13 0.00 0.00
11:04 am 11:04 Mostly Cloudy with Nearby Thunderstorms 54 12.2 52 11.1 93 93 SE 5 7 29.99 1016 8 13 0.00 0.00
11:24 am 11:24 Cloudy with Strong Thunderstorms 56 13.3 52 11.1 87 87 W 20 31 30.12 1020 3 5 0.06 1.52
11:53 am 11:53 Cloudy with Thunderstorms 55 12.8 52 11.1 90 90 W 20 31 30.11 1020 2 3 0.15 3.81
12:17 pm 12:17 Cloudy with Nearby Thunderstorms 53 11.7 53 11.7 100 100 ESE 5 7 30.07 1018 2 3 0.15 3.81
12:32 pm 12:32 Cloudy with Thunderstorms 53 11.7 52 11.1 96 96 VRB 5 7 30.06 1018 2 3 0.22 5.59
12:53 pm 12:53 Cloudy with Rain 53 11.7 52 11.1 96 96 VRB 7 11 30.04 1017 2 3 0.32 8.13
1:02 pm 13:02 Cloudy with Thunderstorms 53 11.7 52 11.1 96 96 ESE 5 7 30.03 1017 3 5 0.04 1.02
1:23 pm 13:23 Cloudy with Nearby Thunderstorms 53 11.7 52 11.1 96 96 SE 8 13 30.00 1016 3 5 0.12 3.05
1:36 pm 13:36 Cloudy with Rain 53 11.7 52 11.1 96 96 SE 7 11 30.01 1016 3 4 0.18 4.57
1:50 pm 13:50 Cloudy with Rain 54 12 52 11 94 94 ESE 9 15 29.96 1015 3 5 0.25 6.35
1:53 pm 13:53 Cloudy with Thunderstorms 53 11.7 52 11.1 96 96 ESE 10 17 29.94 1014 3 4 0.26 6.60
2:03 pm 14:03 Cloudy with Thunderstorms 53 11.7 53 11.7 100 100 ESE 9 15 29.93 1014 4 6 0.02 0.51
2:13 pm 14:13 Cloudy with Light Rain 53 11.7 53 11.7 100 100 ESE 12 19 29.90 1013 5 8 0.03 0.76
2:21 pm 14:21 Cloudy with Nearby Thunderstorms 54 12.2 53 11.7 97 97 ESE 13 20 29.86 1011 7 11 0.04 1.02
2:36 pm 14:36 Mostly Cloudy 55 12.8 54 12.2 96 96 VRB 7 11 29.91 1013 10 16 0.04 1.02
2:51 pm 14:51 Mostly Cloudy 55 13 54 12 94 94 VRB 6 9 29.92 1013 10 16 0.04 1.02
2:53 pm 14:53 Mostly Cloudy 55 12.8 54 12.2 96 96 VRB 3 6 29.92 1013 10 16 0.04 1.02
3:53 pm 15:53 Cloudy 56 13.3 54 12.2 93 93 Calm 29.92 1013 10 16 0.00 0.00
4:53 pm 16:53 Cloudy 57 13.9 56 13.3 96 96 VRB 5 7 29.91 1013 10 16 0.00 0.00
5:53 pm 17:53 Cloudy 58 14.4 55 12.8 90 90 S 10 17 29.91 1013 10 16 0.00 0.00
6:53 pm 18:53 Cloudy 57 13.9 56 13.3 96 96 S 7 11 29.90 1013 10 16 0.00 0.00
7:53 pm 19:53 Cloudy 58 14.4 56 13.3 93 93 S 7 11 29.91 1013 10 16 0.00 0.00
8:53 pm 20:53 Cloudy 58 14.4 56 13.3 93 93 S 7 11 29.91 1013 10 16 0.00 0.00
9:29 pm 21:29 Cloudy with Mist and Fog 57 13.9 57 13.9 100 100 SSE 6 9 29.92 1013 3 4 0.00 0.00
9:53 pm 21:53 Cloudy with Mist and Fog 57 13.9 57 13.9 100 100 SSE 5 7 29.91 1013 3 5 0.00 0.00
10:43 pm 22:43 Cloudy with Mist and Fog 57 13.9 57 13.9 100 100 SSE 5 7 29.92 1013 3 4 0.00 0.00
10:53 pm 22:53 Cloudy with Mist and Fog 57 13.9 57 13.9 100 100 S 3 6 29.91 1013 3 4 0.00 0.00
11:05 pm 23:05 Cloudy with Mist and Fog 57 13.9 57 13.9 100 100 SSE 5 7 29.91 1013 4 6 0.00 0.00
11:17 pm 23:17 Cloudy 58 14.4 57 13.9 97 97 SSE 7 11 29.90 1013 7 11 0.00 0.00
11:39 pm 23:39 Cloudy 58 14.4 57 13.9 97 97 SSE 7 11 29.89 1012 10 16 0.00 0.00
11:53 pm 23:53 Cloudy 58 14.4 57 13.9 97 97 S 7 11 29.90 1012 10 16 0.00 0.00

Powered by AerisWeather